{"data":{"norad_id":56893,"intl_designator":"2023-083T","name":"STARLINK-6216","alt_names":[],"object_type":"PAYLOAD","status":"ACTIVE","operator":null,"country":"US","launch_date":"2023-06-12","launch_site_code":"AFETR","launch_vehicle":null,"mission":null,"orbit_class":"UNKNOWN","rcs_meters":null,"size_class":null,"mass_kg":null,"dimensions":null,"purposes":["comms"],"wikipedia_slug":null,"has_3d_model":false,"image_url":null,"decayed_at":null,"tle_current":{"epoch":"2026-09-20T20:59:50.382816Z","epoch_age_seconds":85233,"freshness":"FRESH","line1":"1 56893U 23083T   26263.87488869  .00000150  00000+0  14975-4 0  9999","line2":"2 56893  43.0013  62.6992 0001098 270.8684  89.2042 15.27579395181605","mean_motion":15.27579395,"eccentricity":0.0001098,"inclination_deg":43.0013,"raan_deg":62.6992,"arg_perigee_deg":270.8684,"mean_anomaly_deg":89.2042,"bstar":1.4975e-5,"rev_number":18160,"period_min":94.266786048132,"perigee_km":482.29754919564,"apogee_km":483.80426606016,"semimajor_km":6861.1879076279,"source":"CELESTRAK","updated_at":"2026-09-21T09:00:33.522888Z"}}}